カタログに戻る

COSMOS 1275 DEB

運用中PO
NORAD 13477·DEBRIS·🇷🇺 Russia

打ち上げ Jun 4, 1981 から Plesetsk Cosmodrome

Loading…

次のパス (今後24時間)

TLE

最新Source: Space-Track

元期: Sep 14, 2026, 08:18 UTC

1 13477U 81053FX  26257.34615307  .00005092  00000-0  15433-2 0  9994
2 13477  82.9901 223.8389 0052219  44.9441 315.5960 14.41326734258248

AllMySatでCOSMOS 1275 DEBをリアルタイム追跡

Download on the App Store